Weather reports worldwide

Advertisment
Lanzarote Airport (AWS), Spain (60040): temperature & dewpoint: 19.05.2019 23:00:00 - 25.05.2019 23:00:00 (WEST)Lanzarote Airport (AWS), Spain (60040): wind speed: 19.05.2019 23:00:00 - 25.05.2019 23:00:00 (WEST)Lanzarote Airport (AWS), Spain (60040): wind direction: 19.05.2019 23:00:00 - 25.05.2019 23:00:00 (WEST)Lanzarote Airport (AWS), Spain (60040): reduced air pressure: 19.05.2019 23:00:00 - 25.05.2019 23:00:00 (WEST)Lanzarote Airport (AWS), Spain (60040): visibility: 19.05.2019 23:00:00 - 25.05.2019 23:00:00 (WEST)Lanzarote Airport (AWS), Spain (60040): precipitation: 19.05.2019 23:00:00 - 25.05.2019 23:00:00 (WEST)
Date & Time tt [°C] td [°C] ff [km/h] ff [kn] dd ppp [hPa] vv [km] rr [mm]
25.05.2019 23:00:00 19,5 14,9 28 15 N 1016,2 - -
25.05.2019 22:00:00 19,5 13,9 26 14 N 1016,0 25 -
25.05.2019 21:00:00 19,5 14,1 28 15 N 1015,7 - -
25.05.2019 20:00:00 20,5 13,7 28 15 N 1015,3 - -
25.05.2019 19:00:00 21,3 13,6 29 16 N 1015,1 25 -
25.05.2019 18:00:00 22,7 13,7 39 21 N 1015,0 - -
25.05.2019 17:00:00 23,3 13,7 44 24 NNW 1014,4 - -
25.05.2019 16:00:00 24,9 14,2 39 21 N 1015,3 30 -
25.05.2019 15:00:00 25,0 14,2 44 24 N 1015,5 - -
25.05.2019 14:00:00 25,0 14,5 37 20 N 1016,0 - -
25.05.2019 13:00:00 24,8 14,9 35 19 N 1016,9 30 -
25.05.2019 12:00:00 23,8 14,5 39 21 N 1017,2 - -
25.05.2019 11:00:00 23,0 14,6 37 20 N 1017,1 - -
25.05.2019 10:00:00 21,4 14,7 41 22 N 1016,7 30 -
25.05.2019 09:00:00 19,9 15,1 35 19 N 1016,3 - -
25.05.2019 08:00:00 18,9 15,2 37 20 N 1015,8 - -
25.05.2019 07:00:00 18,6 15,1 29 16 NNE 1015,7 25 -
25.05.2019 06:00:00 18,5 16,1 26 14 NNE 1015,7 - -
25.05.2019 05:00:00 18,8 15,6 29 16 NNE 1015,4 - -
25.05.2019 04:00:00 18,6 15,7 28 15 N 1015,8 - -
25.05.2019 03:00:00 18,4 15,5 48 26 N 1015,2 - -
25.05.2019 02:00:00 18,3 15,4 48 26 N 1015,5 - -
25.05.2019 01:00:00 18,5 15,8 44 24 N 1016,0 20 -
25.05.2019 00:00:00 18,5 15,7 48 26 N 1016,2 - -
24.05.2019 23:00:00 18,6 15,8 48 26 N 1015,6 - -
24.05.2019 22:00:00 18,9 15,6 48 26 N 1015,3 20 -
24.05.2019 21:00:00 19,3 15,8 48 26 N 1015,0 - -
24.05.2019 20:00:00 20,4 15,6 55 30 N 1014,3 - -
24.05.2019 19:00:00 22,0 16,0 50 27 N 1014,4 20 -
24.05.2019 18:00:00 23,5 16,0 50 27 N 1014,6 - -
24.05.2019 17:00:00 25,2 16,1 52 28 N 1014,8 - -
24.05.2019 16:00:00 25,5 15,6 52 28 N 1014,9 20 -
24.05.2019 15:00:00 25,9 16,3 44 24 N 1016,0 - -
24.05.2019 14:00:00 26,8 16,5 37 20 N 1016,3 - -
24.05.2019 13:00:00 26,4 15,0 41 22 N 1016,7 20 -
24.05.2019 12:00:00 25,6 15,7 44 24 N 1016,8 - -
24.05.2019 11:00:00 24,2 15,8 42 23 N 1016,8 - -
24.05.2019 10:00:00 22,6 15,6 44 24 N 1016,0 20 -
24.05.2019 09:00:00 20,9 15,5 52 28 N 1015,4 - -
24.05.2019 08:00:00 18,9 15,9 46 25 N 1014,6 - -
24.05.2019 07:00:00 18,2 16,0 44 24 N 1014,5 20 -
24.05.2019 06:00:00 18,1 16,1 41 22 N 1014,6 - -
24.05.2019 05:00:00 18,1 16,1 34 18 N 1015,1 - -
24.05.2019 04:00:00 18,4 15,9 34 18 N 1015,4 - -
24.05.2019 03:00:00 18,4 15,8 35 19 N 1015,5 - -
24.05.2019 02:00:00 18,6 15,8 42 23 NNW 1015,4 - -
24.05.2019 01:00:00 18,6 15,8 39 21 NNW 1015,5 25 -
24.05.2019 00:00:00 18,6 15,7 41 22 N 1015,6 - -
23.05.2019 23:00:00 18,7 15,9 39 21 N 1016,0 - -
23.05.2019 22:00:00 18,8 15,8 39 21 N 1015,6 25 -
23.05.2019 21:00:00 19,2 15,7 44 24 N 1015,1 - -
23.05.2019 20:00:00 20,4 15,4 50 27 N 1015,0 - -
23.05.2019 19:00:00 21,9 15,4 42 23 N 1015,4 25 -
23.05.2019 18:00:00 22,8 15,4 44 24 N 1015,6 - -
23.05.2019 17:00:00 23,7 15,5 39 21 N 1016,0 - -
23.05.2019 16:00:00 23,9 15,1 42 23 N 1016,4 25 -
23.05.2019 15:00:00 24,2 14,6 44 24 N 1016,6 - -
23.05.2019 14:00:00 24,5 14,8 42 23 N 1016,7 23 -
23.05.2019 13:00:00 24,3 14,5 42 23 N 1017,1 22 -
23.05.2019 12:00:00 23,2 15,0 39 21 N 1017,3 - -
23.05.2019 11:00:00 22,0 13,6 44 24 N 1016,9 - -
23.05.2019 10:00:00 21,2 13,6 41 22 N 1017,1 25 -
23.05.2019 09:00:00 19,9 13,8 34 18 N 1016,7 - -
23.05.2019 08:00:00 18,7 14,0 37 20 N 1016,2 - -
23.05.2019 07:00:00 17,9 12,9 29 16 N 1016,0 25 -
23.05.2019 06:00:00 18,0 13,5 34 18 N 1016,0 - -
23.05.2019 05:00:00 18,1 13,7 26 14 NNE 1016,1 - -
23.05.2019 04:00:00 18,5 13,4 29 16 N 1016,1 - -
23.05.2019 03:00:00 18,4 13,0 37 20 N 1016,4 - -
23.05.2019 02:00:00 18,6 13,5 35 19 N 1016,8 - -
23.05.2019 01:00:00 18,8 13,9 35 19 N 1017,2 35 -
23.05.2019 00:00:00 18,8 13,8 39 21 N 1017,4 - -
22.05.2019 23:00:00 18,9 14,1 41 22 N 1017,6 - -
22.05.2019 22:00:00 19,2 14,1 34 18 N 1017,1 35 -
22.05.2019 21:00:00 19,6 14,0 34 18 N 1016,7 - -
22.05.2019 20:00:00 20,8 14,6 31 17 N 1016,6 - -
22.05.2019 19:00:00 22,0 14,4 41 22 N 1016,3 35 -
22.05.2019 18:00:00 23,1 14,9 35 19 N 1016,3 - -
22.05.2019 17:00:00 23,4 15,4 35 19 N 1016,5 - -
22.05.2019 16:00:00 24,3 15,5 35 19 N 1016,6 40 -
22.05.2019 15:00:00 25,2 15,7 35 19 N 1016,6 - -
22.05.2019 14:00:00 24,8 15,4 39 21 N 1017,2 - -
22.05.2019 13:00:00 25,0 15,3 39 21 N 1017,4 40 -
22.05.2019 12:00:00 22,5 15,2 35 19 N 1017,6 - -
22.05.2019 11:00:00 22,0 15,4 35 19 N 1017,2 - -
22.05.2019 10:00:00 21,2 14,7 41 22 N 1016,9 35 -
22.05.2019 09:00:00 20,5 14,1 41 22 N 1016,4 - -
22.05.2019 08:00:00 19,3 15,1 34 18 N 1016,0 - -
22.05.2019 07:00:00 18,9 15,1 28 15 N 1015,7 35 -
22.05.2019 06:00:00 19,0 15,2 41 22 N 1015,1 - -
22.05.2019 05:00:00 18,9 15,4 35 19 N 1015,2 - -
22.05.2019 04:00:00 18,4 15,5 34 18 N 1015,5 - -
22.05.2019 03:00:00 18,5 15,4 41 22 NNW 1015,3 - -
22.05.2019 02:00:00 18,6 15,3 39 21 NNW 1015,8 - -
22.05.2019 01:00:00 18,6 15,0 34 18 N 1016,4 40 -
22.05.2019 00:00:00 18,6 15,5 35 19 N 1016,1 - -
21.05.2019 23:00:00 18,7 14,6 35 19 N 1016,4 - -
21.05.2019 22:00:00 19,0 14,6 29 16 N 1016,3 40 -
21.05.2019 21:00:00 19,5 15,4 37 20 N 1015,8 - -
21.05.2019 20:00:00 20,2 15,2 29 16 N 1015,7 - -
21.05.2019 19:00:00 21,6 14,7 39 21 N 1015,3 40 -
21.05.2019 18:00:00 22,9 15,5 42 23 NNW 1015,6 - -
21.05.2019 17:00:00 24,0 14,7 39 21 N 1015,7 - -
21.05.2019 16:00:00 24,3 14,7 34 18 N 1016,5 40 -
21.05.2019 15:00:00 23,7 14,3 37 20 N 1016,9 - -
21.05.2019 14:00:00 24,7 14,5 39 21 N 1017,0 - -
21.05.2019 13:00:00 24,1 14,0 35 19 N 1017,1 40 -
21.05.2019 12:00:00 22,0 14,6 26 14 N 1017,4 - -
21.05.2019 11:00:00 - - - - - - - -
21.05.2019 10:00:00 20,4 14,4 29 16 N 1016,9 40 0,0
21.05.2019 09:00:00 19,4 14,4 28 15 N 1016,7 - -
21.05.2019 08:00:00 19,1 13,9 26 14 N 1015,9 - -
21.05.2019 07:00:00 18,8 14,5 24 13 N 1015,6 40 -
21.05.2019 06:00:00 18,7 14,8 26 14 N 1015,6 - -
21.05.2019 05:00:00 18,8 14,4 28 15 N 1016,0 - -
21.05.2019 04:00:00 18,9 15,4 21 11 N 1016,5 - -
21.05.2019 03:00:00 19,2 14,0 22 12 N 1016,8 - -
21.05.2019 02:00:00 19,1 14,6 24 13 N 1017,3 - -
21.05.2019 01:00:00 19,1 14,8 28 15 N 1017,6 40 -
21.05.2019 00:00:00 19,1 14,9 29 16 N 1017,9 - -
20.05.2019 23:00:00 19,1 14,6 16 9 N 1017,8 - -
20.05.2019 22:00:00 19,2 14,9 22 12 N 1017,5 30 -
20.05.2019 21:00:00 19,3 14,5 16 9 N 1017,0 - -
20.05.2019 20:00:00 20,6 13,1 26 14 N 1016,6 - -
20.05.2019 19:00:00 21,2 13,8 34 18 N 1016,3 4,2 -
20.05.2019 18:00:00 22,3 14,5 31 17 N 1016,6 - -
20.05.2019 17:00:00 23,2 14,0 35 19 N 1016,2 - -
20.05.2019 16:00:00 23,4 14,4 35 19 N 1016,4 40 -
20.05.2019 15:00:00 23,1 14,4 35 19 N 1016,9 - -
20.05.2019 14:00:00 24,6 12,9 37 20 N 1017,1 - -
20.05.2019 13:00:00 23,6 14,7 29 16 N 1017,3 40 -
20.05.2019 12:00:00 22,3 14,4 34 18 N 1017,6 - -
20.05.2019 11:00:00 23,0 12,9 41 22 N 1017,2 - -
20.05.2019 10:00:00 21,0 14,2 42 23 N 1017,0 40 -
20.05.2019 09:00:00 19,3 16,8 28 15 N 1016,6 - -
20.05.2019 08:00:00 18,1 15,9 31 17 N 1016,1 - -
20.05.2019 07:00:00 19,0 14,5 22 12 N 1015,6 40 -
20.05.2019 06:00:00 19,1 14,7 24 13 NNW 1015,4 - -
20.05.2019 05:00:00 18,8 15,2 24 13 N 1015,5 - -
20.05.2019 04:00:00 18,7 15,0 28 15 N 1015,6 - -
20.05.2019 03:00:00 18,5 14,8 28 15 N 1016,1 - -
20.05.2019 02:00:00 18,6 14,4 34 18 N 1016,5 - -
20.05.2019 01:00:00 18,2 14,2 29 16 N 1017,2 40 -
20.05.2019 00:00:00 18,4 14,5 37 20 N 1017,1 - -
19.05.2019 23:00:00 18,4 14,3 44 24 N 1016,1 - -

tt = temperature
td = dewpoint
ff = wind speed
dd = wind direction
ppp = reduced air pressure
vv = visibility
rr = precipitation

Next stations